User: anonymous   Login
Location: ??????????
(48.5701°N, 37.7703°E)
Time: 07:49:33
(UTC+00:00)
Language:

Cosmos 1975 - Orbit

View from above orbital plane
View from above orbital plane
View from above satellite
View from above satellite

Ground track
Ground track

The orbit data is extracted from the following two-line orbital elements,

1 19573U 88093A   20265.56832064 +.00000699 +00000-0 +47235-4 0  9991
2 19573 082.5169 271.0732 0013765 189.5892 170.5074 15.04927626717960
Epoch (UTC): 21 September 2020 13:38:22
Eccentricity: 0.0013765
inclination: 82.5169°
perigee height: 542 km
apogee height: 561 km
right ascension of ascending node: 271.0732°
argument of perigee: 189.5892°
revolutions per day: 15.04927626
mean anomaly at epoch: 170.5074°
orbit number at epoch: 71796

The dashed part of the orbit path shows where the satellite is in the earth's shadow,  

DLR